#timestamp,LO_Frequency,Hit,StdDev 
1546293615.8,286046996.0,N
1546293635.6,286046993.3,N
1546293655.4,286046994.9,N
1546293675.3,286047011.9,Y
1546293695.1,286046998.4,P
1546293715.8,286046998.8,N
1546293735.7,286046999.0,N
1546293755.5,286046997.2,Y
1546293775.4,286046998.5,P
1546293795.2,286046998.7,P
1546293815.0,286046998.9,P
1546293815.9,286046998.9,Y
1546293835.8,286047002.8,P
1546293855.6,286046999.8,N
1546293875.5,286047002.7,N
1546293895.3,286047002.3,N
1546293915.1,286047000.4,N
1546293935.9,286047002.4,N
1546293955.7,286047000.9,N
1546293975.6,286047000.8,N
1546293995.4,286047001.1,N
1546294015.2,286047000.9,N
1546294035.1,286047002.6,N
1546294036.0,286047002.6,N
1546294055.8,286047002.7,N
1546294075.6,286047002.4,N
1546294095.5,286047001.9,N
1546294115.3,286047002.4,N
1546294135.2,286047002.7,N
1546294155.9,286047002.7,N
1546294175.7,286047004.2,Y
1546294195.6,286046999.8,P
1546294215.4,286047000.4,N
1546294235.2,286047000.5,N
1546294255.1,286047000.9,N
1546294256.0,286047000.9,N
1546294275.8,286046998.9,N
1546294295.7,286046999.2,N
1546294315.5,286046998.6,N
1546294335.3,286047000.4,N
1546294355.2,286046999.9,N
1546294375.0,286047000.9,N
1546294375.9,286047000.9,N
1546294395.8,286046998.8,N
1546294415.6,286046999.3,N
1546294435.4,286046998.9,N
1546294455.3,286047000.7,N
1546294475.1,286046998.6,N
1546294495.8,286046999.6,N
1546294515.7,286046999.5,N
1546294535.5,286046996.6,Y
1546294555.4,286046998.8,P
1546294575.2,286046997.3,P
1546294595.0,286046995.0,P
1546294595.9,286046995.0,N
1546294615.8,286046995.3,N
1546294635.6,286046995.3,N
1546294655.5,286046994.9,N
1546294675.3,286046995.7,N
1546294695.1,286046995.7,N
1546294715.9,286046996.0,N
1546294735.7,286046996.0,N
1546294755.5,286046996.4,N
1546294775.4,286046993.4,Y
1546294795.2,286046996.6,P
1546294815.1,286046996.8,P
1546294816.0,286046996.8,P
1546294835.8,286046997.0,Y
1546294855.6,286047000.3,P
1546294875.5,286047000.5,N
1546294895.3,286047000.0,N
1546294915.2,286047000.5,N
1546294935.9,286047000.3,N
1546294955.7,286047000.2,N
1546294975.6,286047001.6,N
1546294995.4,286047002.3,N
1546295015.2,286047002.6,N
1546295035.1,286046999.7,N
1546295036.0,286046999.7,N
1546295055.8,286047011.9,Y
1546295075.7,286047001.9,P
1546295095.5,286047001.7,N
1546295115.3,286047003.6,P
1546295135.2,286047003.6,Y
1546295155.0,286047003.8,P
1546295155.9,286047003.8,P
1546295175.8,286047003.7,P
1546295195.6,286047005.5,Y
1546295215.4,286047002.3,P
1546295235.3,286047002.2,P
1546295255.1,286047002.8,P
1546295275.8,286046999.9,N
1546295295.7,286046998.5,N
1546295315.5,286047001.0,N
1546295335.4,286047000.7,N
1546295355.2,286047002.8,N
1546295375.0,286047002.0,N
1546295375.9,286047002.0,N
1546295395.8,286047002.6,N
1546295415.6,286047001.5,N
1546295435.5,286047001.7,N
1546295455.3,286047005.9,Y
1546295475.1,286047003.8,P
1546295495.9,286047005.1,P
1546295515.7,286047004.7,P
1546295535.5,286047005.7,Y
1546295555.4,286047002.0,P
1546295575.2,286047001.8,N
1546295595.1,286047001.6,N
1546295596.0,286047001.6,N
1546295615.8,286047001.6,N
1546295635.6,286047002.2,N
1546295655.5,286047001.3,N
1546295675.3,286047003.4,Y
1546295695.2,286047002.8,P
1546295715.9,286047002.2,P
1546295735.7,286047000.1,N
1546295755.6,286047002.2,N
1546295775.4,286047004.4,Y
1546295795.2,286047002.6,P
1546295815.1,286047001.7,P
1546295816.0,286047001.7,P
1546295835.8,286047004.2,Y
1546295855.7,286047000.3,P
1546295875.5,286047002.0,N
1546295895.3,286047000.0,N
1546295915.2,286047000.6,N
1546295935.0,286047000.7,N
1546295935.9,286047000.7,N
1546295955.8,286047000.3,N
1546295975.6,286047000.7,N
1546295995.4,286047000.5,N
1546296015.3,286047002.8,Y
1546296035.1,286046999.4,P
1546296055.9,286046996.5,P
1546296075.7,286046996.6,N
1546296095.5,286046997.2,N
1546296115.4,286046996.8,N
1546296135.2,286046997.4,N
1546296155.0,286046999.6,N
1546296155.9,286046999.6,N
1546296175.8,286047002.2,N
1546296195.6,286047001.6,N
1546296215.5,286047000.7,N
1546296235.3,286046998.4,N
1546296255.1,286046997.4,N
1546296275.9,286046995.4,N
1546296295.7,286046993.7,Y
1546296315.5,286046995.8,P
1546296335.4,286046997.6,N
1546296355.2,286046999.6,N
1546296375.1,286046998.7,N
1546296376.0,286046998.7,N
1546296395.8,286046999.0,N
1546296415.6,286046996.9,N
1546296435.5,286046996.5,Y
1546296455.3,286046999.2,P
1546296475.2,286046999.1,N
1546296495.9,286046999.4,N
1546296515.7,286046998.6,N
1546296535.6,286046998.1,Y
1546296555.4,286047000.6,P
1546296575.2,286046998.3,N
1546296595.1,286046997.0,P
1546296596.0,286046997.0,N
1546296615.8,286046999.5,N
1546296635.7,286046996.9,N
1546296655.5,286046996.6,N
1546296675.3,286047000.4,N
1546296695.2,286047000.3,N
1546296715.0,286047000.3,N
1546296715.9,286047000.3,N
1546296735.8,286047001.0,N
1546296755.6,286047001.0,N
1546296775.4,286047000.2,N
1546296795.3,286047002.2,N
1546296815.1,286047002.5,N
1546296835.8,286047005.8,Y
1546296855.7,286047003.1,P
1546296875.5,286047001.9,N
1546296895.4,286047002.0,N
1546296915.2,286047001.4,N
1546296935.0,286047004.3,Y
1546296935.9,286047004.3,P
1546296955.8,286047000.2,N
1546296975.6,286047001.9,N
1546296995.5,286047002.7,N
1546297015.3,286047001.9,N
1546297035.1,286047002.2,N
1546297055.9,286047005.2,Y
1546297075.7,286047001.9,P
1546297095.6,286047002.4,P
1546297115.4,286047002.1,P
1546297135.2,286047002.8,Y
1546297155.1,286046999.5,P
1546297156.0,286046999.5,N
1546297175.8,286046999.6,N
1546297195.6,286046999.5,N
